IBB40PM GCRR-GCLP

Flight info

Callsign IBB40PM
Flight time 0h 32m
Altitude 18000
Route LORPO
Aircraft E195/M-SDFGRY/LB1

Departure

Time 2026-04-27 21:49
Airport César Manrique-Lanzarote Airport (GCRR)

Arrival

Time 2026-04-27 22:21
Airport Gran Canaria Airport (GCLP)
Time Latitude Longitude Altitude Speed Heading
2026-04-27 21:23 28.95188 -13.60595 49 ft 0 kts 296°
2026-04-27 21:40 28.95187 -13.60593 49 ft 2 kts 296°
2026-04-27 21:40 28.95177 -13.60566 47 ft 4 kts 287°
2026-04-27 21:40 28.95172 -13.60536 49 ft 4 kts 264°
2026-04-27 21:40 28.95179 -13.60512 49 ft 2 kts 210°
2026-04-27 21:41 28.95181 -13.60511 49 ft 3 kts 207°
2026-04-27 21:43 28.95171 -13.60516 49 ft 5 kts 203°
2026-04-27 21:43 28.95125 -13.60476 49 ft 13 kts 119°
2026-04-27 21:43 28.95042 -13.60443 49 ft 15 kts 207°
2026-04-27 21:43 28.94931 -13.60507 47 ft 21 kts 206°
2026-04-27 21:44 28.94796 -13.60585 49 ft 22 kts 204°
2026-04-27 21:44 28.94658 -13.60665 46 ft 23 kts 206°
2026-04-27 21:44 28.94498 -13.60758 35 ft 28 kts 207°
2026-04-27 21:44 28.94312 -13.60864 28 ft 31 kts 206°
2026-04-27 21:45 28.94138 -13.60966 28 ft 24 kts 207°
2026-04-27 21:45 28.93995 -13.61049 24 ft 22 kts 208°
2026-04-27 21:45 28.93856 -13.61130 22 ft 22 kts 207°
2026-04-27 21:45 28.93734 -13.61200 22 ft 19 kts 207°
2026-04-27 21:46 28.93669 -13.61217 22 ft 0 kts 160°
2026-04-27 21:47 28.93662 -13.61213 22 ft 3 kts 152°
2026-04-27 21:47 28.93636 -13.61175 22 ft 10 kts 118°
2026-04-27 21:47 28.93617 -13.61077 22 ft 14 kts 72°
2026-04-27 21:47 28.93664 -13.61032 24 ft 0 kts 25°
2026-04-27 21:48 28.93690 -13.61017 24 ft 25 kts 27°
2026-04-27 21:48 28.94090 -13.60787 26 ft 100 kts 26°
2026-04-27 21:48 28.94896 -13.60325 75 ft 155 kts 25°
2026-04-27 21:49 28.95972 -13.59737 588 ft 184 kts 28°
2026-04-27 21:49 28.97096 -13.58849 1339 ft 208 kts 33°
2026-04-27 21:49 28.98173 -13.57748 2534 ft 210 kts 43°
2026-04-27 21:49 28.99168 -13.56464 3463 ft 220 kts 44°
2026-04-27 21:50 29.00253 -13.55222 4275 ft 225 kts 40°
2026-04-27 21:50 29.01463 -13.53940 4870 ft 243 kts 42°
2026-04-27 21:50 29.02634 -13.52468 5617 ft 256 kts 44°
2026-04-27 21:50 29.03832 -13.50911 6468 ft 264 kts 46°
2026-04-27 21:51 29.05043 -13.49302 7279 ft 270 kts 44°
2026-04-27 21:51 29.06585 -13.48088 7999 ft 273 kts 15°
2026-04-27 21:51 29.08476 -13.47981 8760 ft 276 kts 344°
2026-04-27 21:51 29.10150 -13.49058 9471 ft 282 kts 311°
2026-04-27 21:52 29.11057 -13.51010 10313 ft 281 kts 280°
2026-04-27 21:52 29.10917 -13.53235 11066 ft 287 kts 251°
2026-04-27 21:52 29.10047 -13.55270 12070 ft 286 kts 243°
2026-04-27 21:52 29.09155 -13.57238 12810 ft 291 kts 247°
2026-04-27 21:53 29.08255 -13.59275 13687 ft 297 kts 245°
2026-04-27 21:53 29.07469 -13.61435 14540 ft 296 kts 258°
2026-04-27 21:53 29.06884 -13.63708 15335 ft 304 kts 247°
2026-04-27 21:53 29.05643 -13.65701 16117 ft 313 kts 232°
2026-04-27 21:54 29.04209 -13.67591 16938 ft 316 kts 233°
2026-04-27 21:54 29.02792 -13.69535 17746 ft 320 kts 233°
2026-04-27 21:54 29.01340 -13.71530 18129 ft 335 kts 233°
2026-04-27 21:54 28.99770 -13.73616 18137 ft 355 kts 231°
2026-04-27 21:55 28.98090 -13.75757 18163 ft 367 kts 230°
2026-04-27 21:55 28.96347 -13.77939 18193 ft 375 kts 231°
2026-04-27 21:55 28.94555 -13.80136 18221 ft 381 kts 230°
2026-04-27 21:55 28.92725 -13.82352 18196 ft 385 kts 230°
2026-04-27 21:56 28.90862 -13.84560 18123 ft 386 kts 229°
2026-04-27 21:56 28.87118 -13.88988 18069 ft 389 kts 229°
2026-04-27 21:56 28.85239 -13.91209 18073 ft 389 kts 229°
2026-04-27 21:57 28.83358 -13.93434 18069 ft 390 kts 229°
2026-04-27 21:57 28.81471 -13.95655 18070 ft 390 kts 229°
2026-04-27 21:57 28.79582 -13.97877 18060 ft 390 kts 229°
2026-04-27 21:57 28.77692 -14.00094 18060 ft 390 kts 228°
2026-04-27 21:58 28.75800 -14.02313 18060 ft 390 kts 228°
2026-04-27 21:58 28.73906 -14.04530 18061 ft 390 kts 228°
2026-04-27 21:58 28.72012 -14.06747 18061 ft 390 kts 228°
2026-04-27 21:58 28.70117 -14.08962 18065 ft 391 kts 228°
2026-04-27 21:59 28.68222 -14.11176 18066 ft 390 kts 228°
2026-04-27 21:59 28.66329 -14.13390 18069 ft 390 kts 229°
2026-04-27 21:59 28.64433 -14.15603 18075 ft 390 kts 228°
2026-04-27 21:59 28.62537 -14.17814 18078 ft 390 kts 228°
2026-04-27 22:00 28.60642 -14.20022 18083 ft 390 kts 228°
2026-04-27 22:00 28.58746 -14.22232 18080 ft 390 kts 228°
2026-04-27 22:00 28.56848 -14.24441 18080 ft 390 kts 229°
2026-04-27 22:00 28.54949 -14.26651 18082 ft 390 kts 229°
2026-04-27 22:01 28.53076 -14.28831 18077 ft 391 kts 228°
2026-04-27 22:01 28.51174 -14.31036 18079 ft 391 kts 229°
2026-04-27 22:01 28.49276 -14.33242 18077 ft 390 kts 228°
2026-04-27 22:01 28.47374 -14.35451 18076 ft 391 kts 228°
2026-04-27 22:02 28.45704 -14.37801 18081 ft 371 kts 244°
2026-04-27 22:02 28.44936 -14.40477 18106 ft 345 kts 262°
2026-04-27 22:02 28.44582 -14.43105 18067 ft 326 kts 265°
2026-04-27 22:02 28.44260 -14.45600 18016 ft 314 kts 261°
2026-04-27 22:03 28.43703 -14.47978 18078 ft 311 kts 255°
2026-04-27 22:03 28.42774 -14.50216 18102 ft 319 kts 237°
2026-04-27 22:03 28.41353 -14.52173 18124 ft 323 kts 232°
2026-04-27 22:03 28.39895 -14.54123 18127 ft 325 kts 233°
2026-04-27 22:04 28.38436 -14.56091 18121 ft 326 kts 232°
2026-04-27 22:04 28.36970 -14.58054 18079 ft 326 kts 233°
2026-04-27 22:04 28.35510 -14.60013 18078 ft 325 kts 232°
2026-04-27 22:04 28.34044 -14.61971 18082 ft 326 kts 232°
2026-04-27 22:05 28.32573 -14.63935 18082 ft 327 kts 232°
2026-04-27 22:05 28.31101 -14.65895 18082 ft 326 kts 233°
2026-04-27 22:05 28.29632 -14.67853 18079 ft 326 kts 232°
2026-04-27 22:05 28.28144 -14.69832 17718 ft 331 kts 232°
2026-04-27 22:06 28.26644 -14.71808 17381 ft 329 kts 233°
2026-04-27 22:06 28.25160 -14.73766 17064 ft 326 kts 232°
2026-04-27 22:06 28.23692 -14.75706 16744 ft 322 kts 233°
2026-04-27 22:06 28.22239 -14.77626 16442 ft 320 kts 232°
2026-04-27 22:07 28.20793 -14.79533 16145 ft 318 kts 233°
2026-04-27 22:07 28.19358 -14.81428 15850 ft 316 kts 233°
2026-04-27 22:07 28.17935 -14.83312 15558 ft 314 kts 232°
2026-04-27 22:07 28.16515 -14.85188 15268 ft 313 kts 233°
2026-04-27 22:08 28.15100 -14.87059 14980 ft 312 kts 232°
2026-04-27 22:08 28.13694 -14.88922 14691 ft 310 kts 233°
2026-04-27 22:08 28.12297 -14.90771 14410 ft 308 kts 233°
2026-04-27 22:08 28.10910 -14.92605 14130 ft 306 kts 232°
2026-04-27 22:09 28.09524 -14.94436 13850 ft 306 kts 232°
2026-04-27 22:09 28.08136 -14.96274 13539 ft 307 kts 232°
2026-04-27 22:09 28.06749 -14.98111 13227 ft 307 kts 232°
2026-04-27 22:09 28.05383 -14.99920 12923 ft 306 kts 232°
2026-04-27 22:10 28.03984 -15.01770 12617 ft 305 kts 232°
2026-04-27 22:10 28.03072 -15.02976 12422 ft 304 kts 232°
2026-04-27 22:10 28.01239 -15.05401 12021 ft 302 kts 232°
2026-04-27 22:10 27.99895 -15.07182 11736 ft 301 kts 232°
2026-04-27 22:11 27.98538 -15.08979 11442 ft 300 kts 231°
2026-04-27 22:11 27.97184 -15.10770 11154 ft 299 kts 231°
2026-04-27 22:11 27.95824 -15.12570 10728 ft 302 kts 233°
2026-04-27 22:11 27.94462 -15.14379 10306 ft 302 kts 232°
2026-04-27 22:12 27.93100 -15.16185 9882 ft 301 kts 231°
2026-04-27 22:12 27.91740 -15.17982 9417 ft 300 kts 231°
2026-04-27 22:12 27.90383 -15.19780 8957 ft 300 kts 231°
2026-04-27 22:12 27.89032 -15.21570 8502 ft 299 kts 231°
2026-04-27 22:13 27.87685 -15.23356 8054 ft 298 kts 231°
2026-04-27 22:13 27.86365 -15.25104 7611 ft 285 kts 231°
2026-04-27 22:13 27.85524 -15.26217 7304 ft 278 kts 232°
2026-04-27 22:13 27.83885 -15.28392 6715 ft 267 kts 232°
2026-04-27 22:14 27.83096 -15.29441 6424 ft 262 kts 232°
2026-04-27 22:14 27.81928 -15.30991 5959 ft 257 kts 232°
2026-04-27 22:14 27.80783 -15.32513 5510 ft 252 kts 232°
2026-04-27 22:14 27.79654 -15.34014 5056 ft 249 kts 232°
2026-04-27 22:15 27.78538 -15.35498 4557 ft 247 kts 233°
2026-04-27 22:15 27.77429 -15.36973 4051 ft 246 kts 233°
2026-04-27 22:15 27.76332 -15.38437 3552 ft 243 kts 233°
2026-04-27 22:15 27.75250 -15.39883 3069 ft 239 kts 234°
2026-04-27 22:16 27.74332 -15.41315 3123 ft 209 kts 245°
2026-04-27 22:16 27.74088 -15.42810 3270 ft 192 kts 290°
2026-04-27 22:16 27.74874 -15.43907 3779 ft 178 kts 341°
2026-04-27 22:16 27.76007 -15.44321 4578 ft 170 kts 337°
2026-04-27 22:17 27.77077 -15.44963 4522 ft 175 kts 337°
2026-04-27 22:17 27.78344 -15.45180 3578 ft 201 kts
2026-04-27 22:17 27.79725 -15.44672 2758 ft 213 kts 23°
2026-04-27 22:17 27.81037 -15.43989 2411 ft 204 kts 18°
2026-04-27 22:18 27.82364 -15.43481 2120 ft 199 kts 17°
2026-04-27 22:18 27.83636 -15.42913 1868 ft 194 kts 21°
2026-04-27 22:18 27.84853 -15.42345 1605 ft 183 kts 18°
2026-04-27 22:18 27.85990 -15.41858 1366 ft 167 kts 18°
2026-04-27 22:19 27.87017 -15.41405 1151 ft 151 kts 21°
2026-04-27 22:19 27.87953 -15.40981 954 ft 139 kts 18°
2026-04-27 22:19 27.88812 -15.40602 797 ft 130 kts 17°
2026-04-27 22:19 27.89621 -15.40243 587 ft 121 kts 20°
2026-04-27 22:20 27.90425 -15.39893 498 ft 125 kts 18°
2026-04-27 22:20 27.91247 -15.39521 296 ft 128 kts 19°
2026-04-27 22:20 27.92067 -15.39153 120 ft 125 kts 19°
2026-04-27 22:20 27.92831 -15.38820 67 ft 107 kts 21°
2026-04-27 22:21 27.93400 -15.38567 58 ft 66 kts 22°
2026-04-27 22:21 27.93733 -15.38433 56 ft 44 kts 11°
2026-04-27 22:21 27.93950 -15.38442 65 ft 4 kts 351°
2026-04-27 22:22 27.93966 -15.38445 68 ft 4 kts 351°
2026-04-27 22:22 27.94001 -15.38452 70 ft 8 kts 348°
2026-04-27 22:22 27.94055 -15.38522 68 ft 13 kts 294°
2026-04-27 22:22 27.94071 -15.38602 75 ft 8 kts 258°
2026-04-27 22:23 27.94040 -15.38640 83 ft 8 kts 206°
2026-04-27 22:23 27.93973 -15.38668 82 ft 10 kts 201°
2026-04-27 22:23 27.93968 -15.38716 85 ft 6 kts 292°
2026-04-27 22:23 27.93982 -15.38756 87 ft 3 kts 291°
2026-04-27 22:24 27.93985 -15.38764 87 ft 0 kts 291°